Погода Томпо

Погода Томпо : погода сейчас, прогноз погоды и архив. Всё, что Вы хотите узнать о погоде Томпо!

Хотите узнать прогноз погоды Томпо? Тогда Вам сюда: Погода Томпо

Поиск расширенной информации на нашем сайте:

Другие новости

Новости СМИ2

Главная страница сайта

Новости сайта

03.07.2017

Напоминаем, что на нашем специализированном сайте Метеоцентр.Азия вы можете получить высокодетализированные автоматические прогнозы погоды по пунктам России, СНГ и мира в авиационном формате (включающие направление и скорость ветра, видимость, явления погоды, количество и форму облачности, нижнюю и верхнюю границу облачности).

Рекомендуем: Отрасли промышленности http://promyshlennosts.ru

Погода Томпо - сегодня

Время (UTC), дата Ветер
(°,м/с) 
Видим.   Явления Облачность Т
(°С)
Тd
(°С)
f(%) Тe
(°С)
Pmin
(гПа)
dP
(гПа)
Po
(мм)
O2
(г/м3)
Тmin Tmax R s Состояние
почвы
15 09.12.17 340 (С) 20000 м    ясно 
-45.4 -48.4 72 -53  1040.9  0.3  735  357           
18 09.12.17 330 (СЗ) 20000 м    ясно 
-45.2 -48.4 70 -53  1041.4  0.5  736  357           
21 09.12.17 340 (С) 20000 м    ясно 
-45.4 -48.4 72 -53  1014.5  0.1  736  358  -45.6      12  равномерный
сухой снег
100% 
00 10.12.17 310 (СЗ) 20000 м    ясно 
-44.9 -48.4 68 -50  1042.3  0.7  736  357           
03 10.12.17 310 (СЗ) 20000 м    3/0 верхняя 
[Ci fib]
-44.1 -47.6 67 -45  1042.6  0.6  737  356           
06 10.12.17 350 (С) 20000 м    4/0 верхняя 
[Cs]
-41.1 -44.4 70 -46  1042.5  0.7  737  352           
09 10.12.17 360 (С) 20000 м    4/0 верхняя 
[Cs]
-41.2 -44.4 71 -46  1043.9  1.3  738  352    -41.1       
12 10.12.17 360 (С) 20000 м    6/0 верхняя 
[Cs]
-40.2 -43.4 71 -45  1044.3  0.6  739  351           
15 10.12.17 350 (С) 20000 м    4/0 верхняя 
[Cs]
-43 -46.2 70 -44  1045.2  0.1  739  355           
18 10.12.17 330 (СЗ) 20000 м    3/0 верхняя 
[Ci fib]
-44.4 -47.6 70 -46  1046.4  0.8  739  358           
21 10.12.17 340 (С) 20000 м    3/0 верхняя 
[Ci fib]
-44 -47.6 67 -49  1047  0.6  740  357  -44.5      12  равномерный
сухой снег
100% 
00 11.12.17 340 (С) 20000 м    3/0 верхняя 
[Ci fib]
-44.5 -47.6 71 -50  1047.8  0.6  740  358  -44.6         
03 11.12.17 320 (СЗ) 20000 м    3/0 верхняя 
[Ci fib]
-43.4 -46.9 68 -45  1048  0.6  741  357           
06 11.12.17 330 (СЗ) 20000 м    3/0 верхняя 
[Ci fib]
-43.4 -46.9 68 -51  1048.2  0.2  741  357           
09 11.12.17 320 (СЗ) 20000 м    3/0 верхняя 
[Ci fib]
-43.5 -46.9 69 -51  1048.9  0.4  741  357    -43.4       
12 11.12.17 320 (СЗ) 20000 м    3/0 верхняя 
[Ci fib]
-44 -47.6 67 -51  1048.8  -0.1  741  358           
15 11.12.17 310 (СЗ) 20000 м    3/0 верхняя 
[Ci fib]
-44.6 -47.6 72 -46  1048.7  -0.4  741  359           
18 11.12.17 320 (СЗ) 20000 м    3/0 верхняя 
[Ci fib]
-44.7 -47.6 72 -46  1048.4  -0.3  740  359           
21 11.12.17 340 (С) 20000 м    3/0 верхняя 
[Ci fib]
-44.6 -47.6 72 -50  1048.2  -0.2  740  359  -44.9      12  равномерный
сухой снег
100% 
00 12.12.17 330 (СЗ) 20000 м    8/0 верхняя 
[Cs]
-44 -47.6 67 -49  1047.2  -0.6  740  358           
03 12.12.17 340 (С) 20000 м    4/0 средняя, верхняя 
[As trans|Cc]
-42.9 -46.2 70 -48  1046.4  -0.5  740  356           
06 12.12.17 300 (СЗ) 20000 м    6/0 верхняя 
[Cs]
-42.6 -46.2 67 -44  1045.9  -0.5  739  355           
09 12.12.17 320 (СЗ) 20000 м    6/0 верхняя 
[Cs]
-43 -46.2 70 -44  1046.1  0.2  739  356    -42.6       
12 12.12.17 310 (СЗ) 20000 м    6/0 верхняя 
[Cs]
-43.3 -46.9 67 -48  1045.8  -0.3  739  356           
15 12.12.17 330 (СЗ) 20000 м    6/0 верхняя 
[Cs]
-44.1 -47.6 67 -52  1046.2  0.1  739  357           
Время (UTC), дата Ветер
(°,м/с) 
Видим.   Явления Облачность Т
(°С)
Тd
(°С)
f(%) Тe
(°С)
Pmin
(гПа)
dP
(гПа)
Po
(мм)
O2
(г/м3)
Тmin Tmax R s Состояние
почвы

Для получения пояснительной информации подведите курсор к названию столбца.

ПОГОДА Томпо - архив

Всё, что Вы хотите узнать о погоде Томпо - удобно и подробно!

Выберите нужную дату (начиная с 1 января 2015* года) и нажмите кнопку "Найти".
Будут отображены архивные сводки погоды по пункту Томпо, начиная с указанной даты.


Отображать данные в формате CSV (для использования в таблицах Excel)


Внимание! Наш архив погоды предназначен исключительно для личного некоммерческого использования в познавательных целях. Если Вам необходимы официальные справки о состоянии погоды (для производственных, юридических, коммерческих и т.п. целей), обращайтесь в органы Росгидромета.

*Примечание: данная дата относится к архиву по метеостанциям СССР (Россия, СНГ, Балтия).
Архив по метеостанциям Зарубежной Европы и Азии (кроме Китая) хранится 10 дней, по другим регионам земного шара (Китай, Африка, Америка, Австралия, Океания) - 1 день.

Томпо - район местоположения метеостанции


Название, широта, долгота, высота метеостанции:
Томпо 63.9°ш. 135.9°д. 402 м над ур. моря [Российская Федерация]

Дополнительная информация

В oтличие oт бoльшинства пoгoдных сайтoв мы публикуем пoдрoбную метеoинфoрмацию в детальнoм прoфессиoнальнoм фoрмате.

Характеристики температуры и влажнoсти вoздуха измеряются на высoте 2 м в тени вдали oт зданий и деревьев.
Скoрoсть ветра измеряется на высoте 10 м (на урoвне рoста челoвека скoрoсть ветра ниже в 1.5-2 раза). Если метеoстанция нахoдится в гoрoде или в лесу, тo скoрoсть ветра занижена на 2-4 м/с пo сравнению с oткрытым местoм. Скoрoсть ветра над акватoриями крупных рек и oзёр, а также на вершинах хoлмoв на 2-5 м/с выше, чем в oбычных услoвиях.
Атмoсфернoе давление в разных тoчках местнoсти мoжет значительнo oтличаться oт давления на метеoстанции, в зависимoсти oт услoвий рельефа (при пoдъёме на 10 м давление пoнижается примернo на 1 мм рт.ст.).